Tracking 19153 objects as of 27-Apr-2018
HD Live streaming from Space Station
objects crossing your sky now

SL-16 DEB

Track SL-16 DEB now!
10-day predictions


NORAD ID: 22289
Int'l Code: 1992-093D
Perigee: 748.9 km
Apogee: 839.2 km
Inclination: 70.8 °
Period: 100.6 minutes
Semi major axis: 7165 km
RCS: 0.0658 m2 (small)
Launch date: December 25, 1992
Source: Commonwealth of Independent States (former USSR) (CIS)
Launch site: TYURATAM MISSILE AND SPACE COMPLEX (TTMTR)

Note: This is SATELLITE DEBRIS
aabbcc
Your satellite tracking list
Your tracking list is empty




NASA's NSSDC Master Catalog

Two Line Element Set (TLE):
1 22289U 92093D   18116.61482358 +.00000025 +00000-0 +28015-4 0  9997
2 22289 070.8316 315.7474 0063044 231.0604 185.3061 14.31435875322208
Source of the keplerian elements: AFSPC